{"data":{"norad_id":84236,"epoch":"2026-05-23T11:14:42.408096Z","epoch_age_seconds":197431,"freshness":"STALE","line1":"1 84236U          26143.46854639  .00001161  00000+0  66089-2 0  9993","line2":"2 84236   9.0817 261.9706 6894592 238.0835  37.3272  2.62840783118232","mean_motion":2.62840783,"eccentricity":0.6894592,"inclination_deg":9.0817,"raan_deg":261.9706,"arg_perigee_deg":238.0835,"mean_anomaly_deg":37.3272,"bstar":0.0066089,"rev_number":11823,"period_min":547.86018500029,"perigee_km":509.31640765679,"apogee_km":31092.209969342,"semimajor_km":22178.9001885,"source":"CELESTRAK","updated_at":"2026-05-25T13:38:11.426630Z"}}